TimePDT,TemperatureF,Dew PointF,Humidity,Sea Level PressureIn,VisibilityMPH,Wind Direction,Wind SpeedMPH,Gust SpeedMPH,PrecipitationIn,Events,Conditions,WindDirDegrees,DateUTC
12:55 AM,78.1,28.9,17,29.81,10.0,SSE,13.8,-,N/A,,Clear,160,2012-10-09 07:55:00
1:55 AM,77.0,29.5,17,29.82,10.0,SSE,11.5,-,N/A,,Clear,160,2012-10-09 08:55:00
2:55 AM,73.8,29.5,20,29.82,10.0,South,11.5,-,N/A,,Clear,190,2012-10-09 09:55:00
3:55 AM,75.4,30.0,19,29.82,10.0,Calm,Calm,-,N/A,,Clear,0,2012-10-09 10:55:00
4:55 AM,72.7,30.9,21,29.84,10.0,Calm,Calm,-,N/A,,Clear,0,2012-10-09 11:55:00
5:55 AM,71.2,31.1,23,29.86,10.0,Calm,Calm,-,N/A,,Clear,0,2012-10-09 12:55:00
6:55 AM,64.2,30.9,29,29.89,10.0,ENE,6.9,-,N/A,,Clear,60,2012-10-09 13:55:00
7:55 AM,68.7,32.9,27,29.91,10.0,Calm,Calm,-,N/A,,Clear,0,2012-10-09 14:55:00
8:55 AM,73.6,40.8,31,29.91,10.0,NE,5.8,-,N/A,,Clear,50,2012-10-09 15:55:00
9:55 AM,77.5,40.8,27,29.91,10.0,East,4.6,-,N/A,,Clear,80,2012-10-09 16:55:00
10:55 AM,80.2,36.3,21,29.89,10.0,Calm,Calm,-,N/A,,Clear,0,2012-10-09 17:55:00
11:55 AM,83.3,33.4,17,29.87,10.0,SE,10.4,-,N/A,,Clear,140,2012-10-09 18:55:00
12:55 PM,85.5,31.6,14,29.84,10.0,Variable,5.8,-,N/A,,Clear,0,2012-10-09 19:55:00
1:55 PM,87.3,34.9,15,29.81,10.0,South,9.2,-,N/A,,Clear,190,2012-10-09 20:55:00
2:55 PM,87.8,40.5,19,29.79,10.0,ESE,12.7,-,N/A,,Clear,110,2012-10-09 21:55:00
3:55 PM,88.9,37.8,16,29.78,10.0,South,16.1,-,N/A,,Clear,170,2012-10-09 22:55:00
4:55 PM,89.1,31.6,13,29.77,10.0,SSE,19.6,23.0,N/A,,Clear,160,2012-10-09 23:55:00
5:55 PM,86.9,32.9,14,29.78,10.0,SSE,19.6,-,N/A,,Scattered Clouds,160,2012-10-10 00:55:00
6:55 PM,85.1,29.7,13,29.80,10.0,South,20.7,-,N/A,,Mostly Cloudy,170,2012-10-10 01:55:00
7:55 PM,83.3,28.0,13,29.82,10.0,South,17.3,-,N/A,,Clear,170,2012-10-10 02:55:00
8:55 PM,80.8,27.9,14,29.84,10.0,South,9.2,-,N/A,,Mostly Cloudy,180,2012-10-10 03:55:00
9:55 PM,78.4,30.6,17,29.86,10.0,South,6.9,-,N/A,,Partly Cloudy,180,2012-10-10 04:55:00
10:55 PM,77.9,30.2,17,29.85,10.0,South,3.5,-,N/A,,Partly Cloudy,180,2012-10-10 05:55:00
11:55 PM,70.7,29.3,21,29.86,10.0,NNE,5.8,-,N/A,,Scattered Clouds,30,2012-10-10 06:55:00